This demonstration page uses our WeatherBlox Daily Observations layout. Learn more.

Left ArrowRight Arrow

41.12389, -100.76542

Hourly Observations for September 19, 2017

Temp ( °F °C ) Dew Point ( °F °C ) Humidity (%) Winds ( mph kmh ) Pressure ( in mb ) Visibility ( mi km ) Precip ( " mm )
12:53 am 00:53 Clear 58 14.4 56 13.3 93 93 E 9 15 29.77 1008 10 16 0.00 0.00
1:53 am 01:53 Clear 59 15 58 14.4 96 96 E 10 17 29.75 1007 8 13 0.00 0.00
2:53 am 02:53 Clear with Mist and Fog 58 14.4 57 13.9 97 97 E 9 15 29.72 1006 6 10 0.00 0.00
3:53 am 03:53 Clear with Mist and Fog 58 14.4 57 13.9 97 97 E 8 13 29.68 1005 5 8 0.00 0.00
4:53 am 04:53 Clear 58 14.4 57 13.9 97 97 E 10 17 29.66 1004 7 11 0.00 0.00
5:53 am 05:53 Clear 59 15 57 13.9 93 93 E 9 15 29.64 1004 8 13 0.00 0.00
6:53 am 06:53 Clear 60 15.6 59 15 96 96 ESE 10 17 29.62 1003 8 13 0.00 0.00
7:53 am 07:53 Sunny 64 17.8 62 16.7 93 93 SE 8 13 29.62 1003 7 11 0.00 0.00
8:42 am 08:42 Mostly Cloudy 67 19.4 64 17.8 91 91 SSE 12 19 29.53 1000 7 11 0.00 0.00
8:53 am 08:53 Mostly Cloudy 67 19.4 64 17.8 91 91 SSE 9 15 29.60 1003 8 13 0.00 0.00
9:42 am 09:42 Mostly Cloudy 70 21.1 64 17.8 82 82 S 16 26 29.53 1000 9 14 0.00 0.00
9:49 am 09:49 Partly Cloudy 70 21 64 18 83 83 S 14 22 29.53 1000 10 16 0.00 0.00
9:53 am 09:53 Mostly Sunny 70 21.1 64 17.8 82 82 S 16 26 29.58 1002 10 16 0.00 0.00
10:53 am 10:53 Sunny 75 23.9 63 17.2 66 66 SSE 10 17 29.56 1001 10 16 0.00 0.00
11:53 am 11:53 Sunny 77 25 63 17.2 62 62 SSE 12 19 29.54 1000 10 16 0.00 0.00
12:53 pm 12:53 Sunny 80 26.7 62 16.7 54 54 SSE 13 20 29.52 1000 10 16 0.00 0.00
1:53 pm 13:53 Sunny 86 30 59 15 40 40 S 12 19 29.47 998 10 16 0.00 0.00
2:53 pm 14:53 Sunny 87 30.6 59 15 39 39 SE 7 11 29.44 997 10 16 0.00 0.00
3:53 pm 15:53 Sunny 91 32.8 46 7.8 21 21 S 12 19 29.39 995 10 16 0.00 0.00
4:53 pm 16:53 Sunny 91 32.8 50 10 25 25 S 10 17 29.38 995 10 16 0.00 0.00
5:53 pm 17:53 Sunny 88 31.1 45 7.2 22 22 S 10 17 29.37 995 10 16 0.00 0.00
6:53 pm 18:53 Sunny 81 27.2 49 9.4 33 33 VRB 5 7 29.40 996 10 16 0.00 0.00
7:53 pm 19:53 Clear 69 20.6 54 12.2 59 59 W 3 6 29.44 997 10 16 0.00 0.00
8:49 pm 20:49 Clear 68 20 41 5 38 38 NW 22 35 29.50 999 10 16 0.00 0.00
8:53 pm 20:53 Clear 68 20 40 4.4 36 36 NW 24 39 29.54 1001 10 16 0.00 0.00
9:53 pm 21:53 Clear 65 18.3 39 3.9 39 39 NW 18 30 29.59 1002 10 16 0.00 0.00
10:53 pm 22:53 Clear 62 16.7 40 4.4 44 44 NW 13 20 29.62 1003 10 16 0.00 0.00
11:53 pm 23:53 Clear 54 12.2 41 5 62 62 NW 7 11 29.65 1004 10 16 0.00 0.00

Powered by AerisWeather